Погода в Вихоревке

Россия / Иркутская область     56°07′14″N   101°10′13″E
темп.,
°C
ветер,
м/с
пор.,
м/с
влажн.,
%
обл.,
%
осадки,
мм/ч
давл.,
гПа
погр.,
м
29 июня, ср
ср2923:00+18з4959100 0.0 1007559
02:00+14сз2374100 0.0 100746
05:00+12зсз118846 0.0 101011
08:00+17сз1164100 0.0 1011389
11:00+22зсз1144100 0.0 10091462
14:00+25ююз123461 0.0 10082085
17:00+25юв223652 0.0 10062123
20:00+21юв2356100 0.0 1006106
30 июня, чт
чт3023:00+16ююз1164100 0.0 100711
02:00+16ю1166100 0.0 100617
05:00+14юв11820 0.0 100510
08:00+20вюв13530 0.0 1004354
11:00+24вюв34440 0.0 10031195
14:00+26вюв33400 0.0 10021590
17:00+27в32370 0.0 10021775
20:00+23в36510 0.0 1002362
1 июля, пт
пт123:00+16в22820 0.0 100221
02:00+15в11935 0.0 100211
05:00+14всв119420 0.0 100211
08:00+20в126890 0.0 1001254
11:00+27вюв23435 0.0 1000919
14:00+31юв22307 0.0 9991975
17:00+30зсз643671 0.0 9991646
20:00+20сз3882100 0.5 1001259
2 июля, сб
сб223:00+16ссз229820 0.3 100254
02:00+15сз279937 0.3 1002251
05:00+14ссз2599100 0.0 1002157
08:00+14сз2897100 0.4 1004495
11:00+15ссз3691100 0.8 1005556
14:00+15сз3892100 1.8 1005663
17:00+14зюз1697100 1.9 1006438
20:00+13зсз31093100 2.9 1008605
3 июля, вс
вс323:00+11зюз1197100 0.0 100923
02:00+10юз1198100 0.0 101013
05:00+10юз11975 0.0 101011
08:00+15зсз12865 0.0 1010272
11:00+20с015926 0.3 10091188
14:00+19ююз116455 1.1 1008619
17:00+24с123785 0.0 10062333
20:00+17с2269100 0.0 100735